Llagostera (Gironès)





Hora UTC 22:25
Temperatura 21.7 ºC
Humedad 83.0 %
Presión 1015.6 hPa
Pluja 0.0 mm
Velocidad viento 0.0 km/h
Dirección viento

Datos diarios 2024-07-24



Hora UTC (invierno +1h; verano +2h)
Temperatura (ºC) Humedad (%) Presión (hPa) Velocidad viento (km/h) Precipitación (mm)
Hora UTC Aire Humedad Presión Vel. Dir. Vel. Max Dir. Intent. máx 5 min.
00:05 20.3 81.0 1019.2 0.0 0.0 0.0
00:15 20.3 82.0 1019.0 0.0 14.5 0.0
00:25 19.9 81.0 1019.1 0.0 14.5 0.0
00:35 19.8 82.0 1019.0 0.0 14.5 0.0
00:45 19.7 82.0 1019.0 0.0 14.5 0.0
00:55 19.4 83.0 1018.9 0.0 14.5 0.0
01:05 19.5 82.0 1018.8 3.2 14.5 0.0
01:15 19.4 83.0 1018.9 0.0 14.5 0.0
01:25 19.3 84.0 1018.9 0.0 14.5 0.0
01:35 19.1 83.0 1018.8 0.0 14.5 0.0
01:45 18.9 83.0 1018.8 0.0 14.5 0.0
01:55 18.3 83.0 1018.8 3.2 14.5 0.0
02:05 18.1 84.0 1018.5 4.8 14.5 0.0
02:15 17.9 85.0 1018.6 0.0 14.5 0.0
02:25 17.9 85.0 1018.5 0.0 14.5 0.0
02:35 17.9 85.0 1018.5 0.0 14.5 0.0
02:45 18.0 85.0 1018.4 0.0 14.5 0.0
02:55 17.9 85.0 1018.4 0.0 14.5 0.0
03:05 17.8 85.0 1018.4 3.2 14.5 0.0
03:15 17.8 85.0 1018.4 0.0 14.5 0.0
03:25 17.6 85.0 1018.4 3.2 14.5 0.0
03:35 17.7 86.0 1018.4 3.2 14.5 0.0
03:45 17.9 86.0 1018.3 0.0 14.5 0.0
03:55 17.7 86.0 1018.2 0.0 14.5 0.0
04:05 17.7 86.0 1018.4 0.0 14.5 0.0
04:15 17.5 86.0 1018.4 0.0 14.5 0.0
04:25 17.4 86.0 1018.3 0.0 14.5 0.0
04:35 17.4 86.0 1018.5 0.0 14.5 0.0
04:45 17.3 87.0 1018.6 0.0 14.5 0.0
04:55 17.0 87.0 1018.6 0.0 14.5 0.0
05:05 17.1 88.0 1018.6 0.0 14.5 0.0
05:15 17.2 88.0 1018.6 0.0 14.5 0.0
05:25 17.2 89.0 1018.6 0.0 14.5 0.0
05:35 17.4 91.0 1018.7 0.0 14.5 0.0
05:45 17.7 92.0 1018.7 0.0 14.5 0.0
05:55 18.2 94.0 1018.7 0.0 14.5 0.0
06:05 18.7 93.0 1018.5 0.0 14.5 0.0
06:15 19.3 89.0 1018.5 0.0 14.5 0.0
06:25 20.1 87.0 1018.6 0.0 14.5 0.0
06:35 20.8 84.0 1018.6 0.0 14.5 0.0
06:45 21.7 81.0 1018.6 0.0 14.5 0.0
06:55 22.4 80.0 1018.5 0.0 14.5 0.0
07:05 23.2 79.0 1018.4 0.0 14.5 0.0
07:15 23.9 78.0 1018.5 0.0 14.5 0.0
07:25 24.7 77.0 1018.6 0.0 14.5 0.0
07:35 25.6 78.0 1018.5 0.0 14.5 0.0
07:45 26.4 75.0 1018.5 0.0 14.5 0.0
07:55 26.9 74.0 1018.3 0.0 14.5 0.0
08:05 27.4 70.0 1018.4 4.8 14.5 0.0
08:15 27.8 70.0 1018.3 6.4 14.5 0.0
08:25 28.4 66.0 1018.3 4.8 16.1 0.0
08:35 28.7 65.0 1018.3 6.4 16.1 0.0
08:45 28.8 66.0 1018.2 8.0 16.1 0.0
08:55 29.3 65.0 1018.1 4.8 16.1 0.0
09:05 29.6 61.0 1017.9 6.4 16.1 0.0
09:15 29.9 60.0 1017.7 1.6 16.1 0.0
09:25 30.5 59.0 1017.7 8.0 16.1 0.0
09:35 30.5 57.0 1017.6 8.0 16.1 0.0
09:45 30.4 59.0 1017.7 4.8 17.7 0.0
09:55 30.8 56.0 1017.6 4.8 22.5 0.0
10:05 31.1 58.0 1017.5 6.4 22.5 0.0
10:15 30.8 58.0 1017.4 8.0 22.5 0.0
10:25 30.8 57.0 1017.5 4.8 22.5 0.0
10:35 30.7 56.0 1017.4 8.0 22.5 0.0
10:45 30.7 57.0 1017.4 8.0 22.5 0.0
10:55 30.8 58.0 1017.3 11.3 24.1 0.0
11:05 30.5 60.0 1017.2 6.4 24.1 0.0
11:15 30.3 61.0 1017.4 12.9 24.1 0.0
11:25 30.4 59.0 1017.3 9.7 24.1 0.0
11:35 30.4 63.0 1017.3 12.9 27.4 0.0
11:45 30.5 62.0 1017.2 8.0 27.4 0.0
11:55 30.7 63.0 1017.0 11.3 27.4 0.0
12:05 30.9 63.0 1016.9 6.4 27.4 0.0
12:15 30.5 61.0 1016.9 9.7 27.4 0.0
12:25 31.0 64.0 1016.8 9.7 27.4 0.0
12:35 30.8 62.0 1016.8 14.5 27.4 0.0
12:45 30.6 65.0 1016.8 6.4 27.4 0.0
12:55 30.2 63.0 1016.8 25.7 27.4 0.0
13:05 30.2 62.0 1016.8 14.5 27.4 0.0
13:15 30.3 60.0 1016.7 14.5 27.4 0.0
13:25 30.4 58.0 1016.6 9.7 27.4 0.0
13:35 30.4 57.0 1016.6 24.1 27.4 0.0
13:45 30.7 56.0 1016.5 1.6 27.4 0.0
13:55 30.8 55.0 1016.4 8.0 27.4 0.0
14:05 30.8 53.0 1016.3 14.5 27.4 0.0
14:15 30.7 52.0 1016.2 11.3 27.4 0.0
14:25 30.9 56.0 1016.1 11.3 27.4 0.0
14:35 30.5 57.0 1015.9 11.3 27.4 0.0
14:45 30.6 61.0 1015.9 14.5 27.4 0.0
14:55 30.7 62.0 1015.8 11.3 27.4 0.0
15:05 30.6 62.0 1015.8 9.7 27.4 0.0
15:15 30.5 62.0 1015.8 11.3 27.4 0.0
15:25 30.3 62.0 1015.6 8.0 27.4 0.0
15:35 30.3 62.0 1015.5 14.5 27.4 0.0
15:45 30.1 62.0 1015.5 11.3 27.4 0.0
15:55 29.9 62.0 1015.4 0.0 27.4 0.0
16:05 30.1 61.0 1015.3 12.9 27.4 0.0
16:15 29.9 62.0 1015.3 19.3 27.4 0.0
16:25 29.6 62.0 1015.2 4.8 27.4 0.0
16:35 29.6 62.0 1015.1 0.0 27.4 0.0
16:45 29.6 62.0 1015.1 3.2 27.4 0.0
16:55 29.6 61.0 1015.0 8.0 27.4 0.0
17:05 29.6 61.0 1015.1 11.3 27.4 0.0
17:15 29.2 62.0 1015.1 11.3 27.4 0.0
17:25 29.1 61.0 1015.0 6.4 27.4 0.0
17:35 29.1 61.0 1015.0 4.8 27.4 0.0
17:45 29.1 62.0 1014.9 4.8 27.4 0.0
17:55 28.8 62.0 1015.0 6.4 27.4 0.0
18:05 28.5 63.0 1014.9 0.0 27.4 0.0
18:15 28.4 64.0 1014.8 6.4 27.4 0.0
18:25 28.2 65.0 1014.9 4.8 27.4 0.0
18:35 27.9 67.0 1015.1 0.0 27.4 0.0
18:45 27.6 67.0 1015.2 0.0 27.4 0.0
18:55 27.3 69.0 1015.2 0.0 27.4 0.0
19:05 27.0 70.0 1015.2 0.0 27.4 0.0
19:15 26.7 70.0 1015.4 0.0 27.4 0.0
19:25 26.2 71.0 1015.4 0.0 27.4 0.0
19:35 25.9 72.0 1015.3 0.0 27.4 0.0
19:45 25.7 73.0 1015.3 0.0 27.4 0.0
19:55 25.5 75.0 1015.3 0.0 27.4 0.0
20:05 25.1 76.0 1015.4 0.0 27.4 0.0
20:15 24.9 76.0 1015.4 0.0 27.4 0.0
20:25 24.9 76.0 1015.4 0.0 27.4 0.0
20:35 24.8 77.0 1015.5 0.0 27.4 0.0
20:45 24.7 77.0 1015.4 0.0 27.4 0.0
20:55 24.4 78.0 1015.6 0.0 27.4 0.0
21:05 24.2 79.0 1015.6 0.0 27.4 0.0
21:15 24.0 80.0 1015.5 0.0 27.4 0.0
21:25 23.6 80.0 1015.6 0.0 27.4 0.0
21:35 23.3 80.0 1015.6 0.0 27.4 0.0
21:45 23.1 81.0 1015.6 0.0 27.4 0.0
21:55 22.4 82.0 1015.7 0.0 27.4 0.0
22:05 22.3 82.0 1015.6 0.0 27.4 0.0
22:15 21.9 82.0 1015.6 0.0 0.0 0.0
22:25 21.7 83.0 1015.6 0.0 0.0 0.0
Máxima 31.1 94.0 1019.2 25.7 27.4 0.0
Mínima 17.0 52.0 1014.8
Total 0.0